THORAD AGENA D DEB

Satellite information

Favourite Embed

Satellite Type and Status

DEBRISIN ORBIT

Key statistics

Satellite THORAD AGENA D DEB at a glance.

Uptime

20338

Days in orbit

Revolutions

≈ 14.3

Per day

Orbit

SSO

Sun Synchronous Orbit

Inclination

99.7

Latest

Satellite identification and parameters

Extended collection of information and parameters for THORAD AGENA D DEB.

Object identification

Identified? True

Debris? True

Object name: THORAD AGENA D DEB

International designator: 1970-025EM

Object number (NORAD): 4857

Object ID (CCSDS): 4857

Country: UNITED STATES OF AMERICA (US)

Current information (Y/N): Y

RCS size: SMALL

Orbital parameters

Period: 100.786 minutes

Inclination: 99.7496 deg

SMA: 7174.005 km

Apoapsis: 828.318 km

Periapsis: 763.421 km

RAAN: 224.9319 deg

Eccentricy: 0.00452302

Argument of periapsis: 275.5417 deg

Mean anomaly: 84.0603 deg

Mean motion: 14.28763321 rev/day

Mean motion (dot): 0.00005591 rev/day2

B* drag term: 0.0022156258 1/REarth

Two-line elements (TLE)

Creation date: Dec. 12, 2025, 10:14 a.m.

Reference frame: TEME

Reference center: EARTH

Epoch: Dec. 12, 2025, 2:48 a.m. UTC

TLE line 0: 0 THORAD AGENA D DEB

TLE line 1: 1 04857U 70025EM 25346.11731936 .00005591 00000-0 22156-2 0 9997

TLE line 2: 2 04857 99.7496 224.9319 0045230 275.5417 84.0603 14.28763321796230

Live tracking on map

Real-time ground track for satellite THORAD AGENA D DEB.

In-orbit conjunctions

A list of the most updated potential collisions computed for object THORAD AGENA D DEB.

Target Orbit TCA Probability of collision Miss distance Type
CZ-6A DEB SSO 2025-10-03 00:37:45 0.0001227097 73.0 (m) DEBRIS
IRS B3 SSO 2025-09-25 23:20:12 0.0002346907 901.0 (m) PAYLOAD
NOAA 16 DEB SSO 2025-04-04 10:32:01 0.0001298632 195.0 (m) DEBRIS
SL-16 DEB LEO 2025-01-15 23:18:38 0.0001275628 134.0 (m) DEBRIS
THOR BURNER 2 R/B SSO 2025-01-14 06:59:57 0.0001831169 46.0 (m) ROCKET BODY

Associated space launch

Meteorological research and development satellite

THORAD AGENA D DEB was lifted into orbit during the mission ‘Thorad SLV-2G Agena D | Nimbus 4’, on board a Thorad SLV-2G Agena D space rocket.

The launch took place on April 8, 1970, 8:17 a.m. from Space Launch Complex 2E.

For more information about the launch, click the button.

Launch to space Thorad SLV-2G Agena D | Nimbus 4
Thorad SLV-2G Agena D | Nimbus 4

Agency: N/A

Status: Launch Successful

Launch date: April 8, 1970, 8:17 a.m. UTC

Rocket: Thorad SLV-2G Agena D

Launch pad: Space Launch Complex 2E

Location: Vandenberg SFB, CA, USA

...

Latest news about this satellite

There are no fresh news available about this satellite. Check back as we update our databases every day.


Newsletter sign-up

Weekly statistics, charts and insights to help you stay on top of the space industry.